Flag for Germany Weather past 2 weeks in Gummersbach, North Rhine-Westphalia, Germany

Now
64 °F

Thundershowers. Partly sunny.


Feels Like: 64 °F
Forecast: 57 / 72 °F
Wind: 8 mph from Northwest

Location: Koeln / Bonn

Current Time: Jul 5, 2015 at 9:56:46 PM

Latest Report: Jul 5, 2015 at 9:20 PM


Visibility: N/A

Pressure: 30.01 "Hg

Humidity: 88%

Dew point: 61 °F

Location of GummersbachLocation

Historic Weather in Gummersbach — Graph

°F

Gummersbach temperature yesterday

Maximum temperature yesterday: 97 °F (at 1:50 PM)
Minimum temperature yesterday: 70 °F (at 4:20 AM)
Average temperature yesterday: 85 °F

Past Weeks' High & Low Weather Summary

 TemperatureHumidityPressure
High97 °F (Jul 2, 4:20 PM)94% (Jun 22, 8:50 AM)30.24 "Hg (Jun 22, 8:50 AM)
Low48 °F (Jun 22, 11:50 PM)17% (Jun 30, 3:50 PM)29.68 "Hg (Jun 22, 9:20 PM)
Average69 °F63%30.07 "Hg
* Reported Jun 20 8:20 PM — Jul 5 8:20 PM, Gummersbach, Weather by CustomWeather, © 2015

Note: Actual official high and low records may vary slightly from our data, if they occured in-between our weather recording intervals... More about our weather records

Advertising

Gummersbach weather history for previous 24 hours

 ConditionsComfort  
Time TempWeatherWind HumidityBarometerVisibility
8:20 PM
Sun, Jul 5
70 °FScattered showers. Scattered clouds.10 mph69%30.01 "HgN/A
7:50 PM70 °FThundershowers. Partly sunny.12 mph69%29.98 "HgN/A
7:20 PM70 °FPartly sunny.15 mph69%29.98 "HgN/A
6:50 PM70 °FPartly sunny.20 mph78%29.98 "HgN/A
6:20 PM73 °FThunderstorms. Broken clouds.16 mph83%29.95 "Hg4 mi
5:50 PM84 °FThundershowers. Broken clouds.20 mph51%29.89 "HgN/A
5:20 PM91 °FPartly sunny.20 mph44%29.86 "HgN/A
4:50 PM93 °FPartly sunny.9 mph44%29.86 "HgN/A
4:20 PM91 °FBroken clouds.10 mph46%29.86 "HgN/A
3:50 PM93 °FThundershowers. Broken clouds.3 mph44%29.89 "HgN/A
3:20 PM91 °FThundershowers. Broken clouds.2 mph44%29.89 "HgN/A
2:50 PM90 °FBroken clouds.8 mph52%29.89 "HgN/A
2:20 PM88 °FBroken clouds.6 mph52%29.92 "HgN/A
1:50 PM86 °FBroken clouds.7 mph55%29.95 "HgN/A
1:20 PM82 °FPartly sunny.5 mph74%29.95 "HgN/A
12:50 PM79 °FPartly sunny.5 mph74%29.98 "HgN/A
12:20 PM77 °FScattered clouds.6 mph74%29.98 "HgN/A
11:50 AM75 °FSunny.3 mph78%30.01 "Hg10 mi
11:20 AM72 °FSunny.3 mph83%30.01 "Hg10 mi
10:50 AM72 °FSprinkles. Partly sunny.6 mph83%30.04 "HgN/A
10:20 AM72 °FThundershowers. Broken clouds.6 mph73%30.01 "HgN/A
9:50 AM70 °FThunderstorms. Partly sunny.8 mph78%30.04 "HgN/A
9:20 AM75 °FThundershowers. Scattered clouds.2 mph61%30.07 "HgN/A
8:50 AM73 °FScattered clouds.3 mph65%30.07 "HgN/A
8:20 AM72 °FSunny.3 mph69%30.07 "Hg10 mi
7:50 AM72 °FPassing clouds.2 mph69%30.07 "HgN/A
7:20 AM70 °FPassing clouds.2 mph73%30.07 "HgN/A
6:50 AM70 °FPassing clouds.6 mph69%30.07 "HgN/A
6:20 AM68 °FPassing clouds.8 mph73%30.09 "HgN/A
5:20 AM70 °FClear.3 mph69%30.09 "Hg10 mi
4:50 AM72 °FScattered showers. Passing clouds.6 mph65%30.09 "HgN/A
4:20 AM70 °FClear.7 mph64%30.09 "Hg10 mi
3:50 AM70 °FClear.7 mph64%30.09 "Hg10 mi
3:20 AM72 °FClear.9 mph61%30.09 "Hg10 mi
2:50 AM75 °FClear.9 mph50%30.09 "Hg10 mi
2:20 AM77 °FClear.10 mph47%30.09 "Hg10 mi
1:50 AM77 °FClear.8 mph54%30.09 "Hg10 mi
1:20 AM77 °FClear.8 mph61%30.09 "Hg10 mi
12:50 AM79 °FClear.7 mph61%30.09 "Hg10 mi
12:20 AM79 °FClear.5 mph61%30.09 "Hg10 mi
11:50 PM
Sat, Jul 4
79 °FClear.7 mph61%30.09 "Hg10 mi
11:20 PM81 °FClear.3 mph58%30.07 "Hg10 mi
10:50 PM79 °FClear.2 mph61%30.07 "Hg10 mi
10:20 PM79 °FSunny.6 mph58%30.07 "Hg10 mi
9:50 PM84 °FSunny.3 mph48%30.07 "Hg10 mi
9:20 PM86 °FSunny.2 mph46%30.07 "Hg10 mi
Weather by CustomWeather, © 2015

See weather overviewHow to use our weather pages